Location: Newark
(45.9456°N, 15.4064°E)
Time: 15:38:07
(UTC+00:00)

SR - Pass Details

Date: 29 January 2020
Orbit: 575 x 880 km, 66.7° (Epoch: 23 February)

Event Time Altitude Azimuth Distance (km) Brightness Sun altitude
Rises 02:46:57 0° 330° (NNW) 3,445 - -37.8°
Reaches altitude 10° 02:50:29 10° 350° (N) 2,466 - -37.2°
Exits shadow 02:53:18 16° 20° (NNE) 2,018 ? -36.7°
Maximum altitude 02:54:02 17° 29° (NNE) 1,986 ? -36.6°
Drops below altitude 10° 02:57:27 10° 68° (ENE) 2,350 ? -36.0°
Sets 03:00:41 0° 89° (E) 3,210 ? -35.4°
